When you browse on this site, cookies collect data to enhance your experience and personalize the content and advertising you see.
Visit our Privacy Policy to learn more. By continuing to use the site, you agree to this use of cookies and data.
  • In Denmark
  • List of Countries
  • For 7 days
  • Water Temperature
  • Weather Map
  • Weather Widgets
  • user-avatar
    Login

    Hourly Weather Gabrovo

    Today, 28 February, Friday

    Time Temperature Precipitation Wind Pressure Humidity
    00:00 -1°C° 0 mm 2 mps 695 mmHg 71%
    01:00 -1°C° 0 mm 2 mps 695 mmHg 71%
    02:00 0°C° 0 mm 1 mps 695 mmHg 70%
    03:00 0°C° 0 mm 1 mps 695 mmHg 70%
    04:00 0°C° 0 mm 1 mps 695 mmHg 70%
    05:00 0°C° 0 mm 1 mps 696 mmHg 70%
    06:00 0°C° 0 mm 1 mps 696 mmHg 67%
    07:00 +1°C° 0 mm 1 mps 696 mmHg 65%
    08:00 +1°C° 0 mm 1 mps 696 mmHg 62%
    09:00 +3°C° 0 mm 1 mps 696 mmHg 58%
    10:00 +3°C° 0 mm 2 mps 696 mmHg 54%
    11:00 +4°C° 0 mm 2 mps 696 mmHg 50%
    12:00 +4°C° 0 mm 3 mps 695 mmHg 51%
    13:00 +5°C° 0 mm 3 mps 695 mmHg 51%
    14:00 +7°C° 0 mm 3 mps 694 mmHg 51%
    15:00 +5°C° 0 mm 3 mps 694 mmHg 56%
    16:00 +5°C° 0 mm 3 mps 694 mmHg 60%
    17:00 +6°C° 0 mm 2 mps 694 mmHg 65%
    18:00 +3°C° 0.9 mm 3 mps 694 mmHg 73%
    19:00 +2°C° 0.9 mm 3 mps 694 mmHg 82%
    20:00 0°C° 0.9 mm 4 mps 695 mmHg 90%
    21:00 -1°C° 0.3 mm 4 mps 695 mmHg 87%
    22:00 -1°C° 0.3 mm 4 mps 695 mmHg 83%
    23:00 0°C° 0.3 mm 3 mps 695 mmHg 80%

    Tomorrow, 29 February, Saturday

    Time Temperature Precipitation Wind Pressure Humidity
    00:00 0°C° 0.2 mm 3 mps 695 mmHg 81%
    01:00 -2°C° 0.2 mm 4 mps 696 mmHg 83%
    02:00 -2°C° 0.2 mm 4 mps 696 mmHg 84%
    03:00 -3°C° 0.3 mm 4 mps 696 mmHg 85%
    04:00 -3°C° 0.3 mm 4 mps 697 mmHg 85%
    05:00 -3°C° 0.3 mm 4 mps 697 mmHg 86%
    06:00 -3°C° 0.2 mm 4 mps 698 mmHg 84%
    07:00 -3°C° 0.2 mm 4 mps 698 mmHg 82%
    08:00 -3°C° 0.2 mm 4 mps 699 mmHg 80%
    09:00 -1°C° 0 mm 4 mps 700 mmHg 74%
    10:00 0°C° 0 mm 4 mps 700 mmHg 69%
    11:00 +1°C° 0 mm 4 mps 701 mmHg 63%
    12:00 +3°C° 0 mm 3 mps 701 mmHg 61%
    13:00 +4°C° 0 mm 3 mps 702 mmHg 59%
    14:00 +4°C° 0 mm 3 mps 702 mmHg 57%
    15:00 +5°C° 0 mm 2 mps 702 mmHg 58%
    16:00 +6°C° 0 mm 1 mps 702 mmHg 58%
    17:00 +6°C° 0 mm 1 mps 702 mmHg 59%
    18:00 +4°C° 0 mm 1 mps 702 mmHg 63%
    19:00 +3°C° 0 mm 1 mps 702 mmHg 68%
    20:00 +2°C° 0 mm 1 mps 702 mmHg 72%
    21:00 +1°C° 0 mm 1 mps 702 mmHg 75%
    22:00 +1°C° 0 mm 1 mps 702 mmHg 77%
    23:00 +1°C° 0 mm 1 mps 702 mmHg 79%

    Day after tomorrow, 1 March, Sunday

    Time Temperature Precipitation Wind Pressure Humidity
    00:00 +1°C° 0 mm 1 mps 702 mmHg 80%
    01:00 -1°C° 0 mm 2 mps 702 mmHg 82%
    02:00 -2°C° 0 mm 2 mps 702 mmHg 83%
    03:00 -2°C° 0 mm 2 mps 702 mmHg 83%
    04:00 -1°C° 0 mm 2 mps 701 mmHg 83%
    05:00 -1°C° 0 mm 2 mps 701 mmHg 83%
    06:00 +1°C° 0 mm 1 mps 701 mmHg 83%
    07:00 +1°C° 0 mm 1 mps 701 mmHg 84%
    08:00 +1°C° 0 mm 1 mps 701 mmHg 84%
    09:00 +2°C° 0 mm 1 mps 702 mmHg 79%
    10:00 +3°C° 0 mm 2 mps 702 mmHg 73%
    11:00 +4°C° 0 mm 2 mps 702 mmHg 68%
    12:00 +5°C° 0 mm 2 mps 702 mmHg 65%
    13:00 +6°C° 0 mm 2 mps 701 mmHg 61%
    14:00 +7°C° 0 mm 2 mps 701 mmHg 57%
    15:00 +7°C° 0 mm 2 mps 701 mmHg 60%
    16:00 +7°C° 0 mm 2 mps 700 mmHg 62%
    17:00 +7°C° 0 mm 2 mps 700 mmHg 64%
    18:00 +6°C° 0 mm 2 mps 700 mmHg 70%
    19:00 +5°C° 0 mm 2 mps 700 mmHg 76%
    20:00 +4°C° 0 mm 1 mps 700 mmHg 82%
    21:00 +4°C° 0 mm 1 mps 700 mmHg 84%
    22:00 +4°C° 0 mm 1 mps 700 mmHg 86%
    23:00 +4°C° 0 mm 1 mps 700 mmHg 88%

    2 March, Monday

    Time Temperature Precipitation Wind Pressure Humidity
    00:00 +3°C° 0 mm 1 mps 699 mmHg 89%
    01:00 +3°C° 0 mm 1 mps 699 mmHg 90%
    02:00 +3°C° 0 mm 1 mps 699 mmHg 91%
    03:00 +3°C° 0 mm 1 mps 698 mmHg 92%
    04:00 +2°C° 0 mm 1 mps 698 mmHg 92%
    05:00 +2°C° 0 mm 1 mps 697 mmHg 92%
    06:00 +3°C° 0 mm 1 mps 697 mmHg 91%
    07:00 +3°C° 0 mm 1 mps 697 mmHg 90%
    08:00 +3°C° 0 mm 1 mps 697 mmHg 89%
    09:00 +5°C° 0 mm 1 mps 697 mmHg 84%
    10:00 +6°C° 0 mm 1 mps 697 mmHg 78%
    11:00 +7°C° 0 mm 2 mps 697 mmHg 72%
    12:00 +8°C° 0 mm 2 mps 697 mmHg 69%
    13:00 +8°C° 0 mm 2 mps 696 mmHg 67%
    14:00 +9°C° 0 mm 2 mps 696 mmHg 64%
    15:00 +10°C° 0 mm 1 mps 696 mmHg 64%
    16:00 +11°C° 0 mm 1 mps 696 mmHg 64%
    17:00 +11°C° 0 mm 1 mps 696 mmHg 64%
    18:00 +10°C° 0 mm 1 mps 696 mmHg 68%
    19:00 +8°C° 0 mm 1 mps 696 mmHg 72%
    20:00 +7°C° 0 mm 1 mps 697 mmHg 76%
    21:00 +7°C° 0 mm 1 mps 697 mmHg 77%
    22:00 +7°C° 0 mm 1 mps 697 mmHg 79%
    23:00 +6°C° 0 mm 1 mps 697 mmHg 80%

    3 March, Tuesday

    Time Temperature Precipitation Wind Pressure Humidity
    00:00 +6°C° 0 mm 1 mps 697 mmHg 80%
    01:00 +6°C° 0 mm 1 mps 697 mmHg 81%
    02:00 +6°C° 0 mm 1 mps 697 mmHg 81%
    03:00 +6°C° 0 mm 1 mps 697 mmHg 83%
    04:00 +5°C° 0 mm 2 mps 696 mmHg 84%
    05:00 +5°C° 0 mm 2 mps 696 mmHg 86%
    06:00 +5°C° 0 mm 2 mps 696 mmHg 87%
    07:00 +5°C° 0 mm 2 mps 696 mmHg 88%
    08:00 +5°C° 0 mm 2 mps 696 mmHg 90%
    09:00 +7°C° 0 mm 3 mps 696 mmHg 85%
    10:00 +8°C° 0 mm 4 mps 696 mmHg 79%
    11:00 +10°C° 0 mm 5 mps 696 mmHg 74%
    12:00 +12°C° 0 mm 5 mps 696 mmHg 70%
    13:00 +13°C° 0 mm 6 mps 696 mmHg 66%
    14:00 +14°C° 0 mm 6 mps 696 mmHg 62%
    15:00 +13°C° 0 mm 6 mps 696 mmHg 64%
    16:00 +13°C° 0 mm 6 mps 696 mmHg 66%
    17:00 +11°C° 0 mm 6 mps 695 mmHg 68%
    18:00 +10°C° 0 mm 6 mps 695 mmHg 73%
    19:00 +9°C° 0 mm 6 mps 695 mmHg 78%
    20:00 +8°C° 0 mm 5 mps 695 mmHg 83%
    21:00 +8°C° 0 mm 5 mps 695 mmHg 83%
    22:00 +8°C° 0 mm 5 mps 695 mmHg 84%
    23:00 +8°C° 0 mm 5 mps 695 mmHg 84%

    4 March, Wednesday

    Time Temperature Precipitation Wind Pressure Humidity
    00:00 +8°C° 0 mm 6 mps 695 mmHg 84%
    01:00 +8°C° 0 mm 6 mps 694 mmHg 83%
    02:00 +8°C° 0 mm 6 mps 694 mmHg 83%
    03:00 +8°C° 0 mm 6 mps 694 mmHg 84%
    04:00 +7°C° 0 mm 6 mps 693 mmHg 86%
    05:00 +7°C° 0 mm 6 mps 693 mmHg 87%
    06:00 +7°C° 0 mm 6 mps 693 mmHg 86%
    07:00 +7°C° 0 mm 6 mps 693 mmHg 86%
    08:00 +8°C° 0 mm 6 mps 693 mmHg 86%
    09:00 +9°C° 0 mm 7 mps 693 mmHg 80%
    10:00 +10°C° 0 mm 7 mps 693 mmHg 74%
    11:00 +11°C° 0 mm 8 mps 693 mmHg 68%
    12:00 +11°C° 0.1 mm 8 mps 692 mmHg 68%
    13:00 +11°C° 0.1 mm 8 mps 692 mmHg 68%
    14:00 +11°C° 0.1 mm 8 mps 692 mmHg 68%
    15:00 +10°C° 0.7 mm 7 mps 691 mmHg 73%
    16:00 +9°C° 0.7 mm 6 mps 691 mmHg 78%
    17:00 +8°C° 0.7 mm 5 mps 690 mmHg 83%
    18:00 +8°C° 0.2 mm 5 mps 690 mmHg 84%
    19:00 +7°C° 0.2 mm 4 mps 690 mmHg 84%
    20:00 +6°C° 0.2 mm 4 mps 690 mmHg 85%
    21:00 +5°C° 0.1 mm 4 mps 690 mmHg 87%
    22:00 +5°C° 0.1 mm 4 mps 690 mmHg 88%
    23:00 +4°C° 0.1 mm 3 mps 690 mmHg 89%
    Show more